Regional Weather Roundup
Issued by NWS

Home | Current Version | Previous Version | Graphics & Text | Print | Product List | Glossary On
Versions: 1 2 3 4 5 6 7 8 9 10 11 12 13 14 15 16 17 18 19 20 21 22 23 24 25 26 27 28 29 30 31 32 33 34 35 36 37 38 39 40 41 42 43 44 45 46 47 48 49 50
000
ASUS43 KOAX 271210
RWRNE

WEATHER ROUNDUP FOR NEBRASKA
NATIONAL WEATHER SERVICE OMAHA NE
600 AM CST FRI FEB 27 2015

NOTES: SATELLITE DATA IS BEING USED TO AUGMENT CLOUD COVER ABOVE
       12000 FEET.
       "FAIR" INDICATES FEW OR NO CLOUDS BELOW 12,000 FEET WITH NO
       SIGNIFICANT WEATHER AND/OR OBSTRUCTIONS TO VISIBILITY.

  * THESE STATIONS DO NOT REPORT WEATHER SUCH AS RAIN...SNOW OR FOG.

NEZ001>004-019>022-054>056-271300-
NEBRASKA PANHANDLE

CITY           SKY/WX    TMP DP  RH WIND       PRES   REMARKS
SCOTTSBLUFF    CLOUDY     7  -1  70 SE14      30.20F WCI -10
6HR MIN TEMP:   7; 6HR MAX TEMP:   9; 6HR PCP: TRACE;

ALLIANCE       CLEAR      3  -2  79 S12       30.21F WCI -13
6HR MIN TEMP:  -2; 6HR MAX TEMP:   4;

CHADRON        CLEAR     -4 -10  75 SE3       30.26F
6HR MIN TEMP:  -8; 6HR MAX TEMP:  -4;

KIMBALL        CLOUDY     6   2  86 SE16      30.09S WCI -13
SIDNEY         MOCLDY     4   0  83 SE13      30.18F WCI -13
6HR MIN TEMP:   3; 6HR MAX TEMP:   8; 6HR PCP: TRACE;

$$

NEZ057>060-069>072-079>082-271300-
SOUTHWEST NEBRASKA

CITY           SKY/WX    TMP DP  RH WIND       PRES   REMARKS
NORTH PLATTE   CLEAR     -4  -9  79 CALM      30.41R
6HR MIN TEMP:  -5; 6HR MAX TEMP:   0;

IMPERIAL       MOCLDY     5  -3  69 SE12      30.33S WCI -11
6HR MIN TEMP:   5; 6HR MAX TEMP:   8;

LEXINGTON      MOCLDY    -3  -8  81 N3        30.45S
MCCOOK         CLOUDY     9  -2  61 SE10      30.42S WCI  -5
6HR MIN TEMP:   7; 6HR MAX TEMP:  10;

OGALLALA       CLOUDY     5  -1  75 SE5       30.33S WCI  -4
$$

NEZ005>010-023>029-035>040-094-271300-
NORTH CENTRAL NEBRASKA

CITY           SKY/WX    TMP DP  RH WIND       PRES   REMARKS
VALENTINE      CLEAR     -6 -10  83 SW5       30.39S WCI -17
6HR MIN TEMP:  -8; 6HR MAX TEMP:  -2;

AINSWORTH      CLEAR     -5 -10  79 SW3       30.39F
BROKEN BOW     CLEAR     -7 -13  75 CALM      30.44R
6HR MIN TEMP:  -9; 6HR MAX TEMP:  -3;

O`NEILL        CLEAR     -4  -8  82 SW3       30.47F
ORD            CLEAR     -9 -15  75 CALM      30.47S
6HR MIN TEMP:  -9; 6HR MAX TEMP:  -2;

THEDFORD       CLEAR     -2  -7  80 SW7       30.38S WCI -16
$$

NEZ041-046>049-061>064-073>077-083>087-271300-
SOUTH CENTRAL NEBRASKA

CITY           SKY/WX    TMP DP  RH WIND       PRES   REMARKS
GRAND ISLAND   CLEAR     -2  -8  76 CALM      30.52S
6HR MIN TEMP:  -4; 6HR MAX TEMP:   1;

AURORA         CLEAR     -3  -8  81 NE3       30.52S
HASTINGS       FAIR      -3  -7  82 W6        30.50R WCI -15
6HR MIN TEMP:  -4; 6HR MAX TEMP:   2;

HEBRON         FAIR      -1  -6  79 CALM      30.57R
HOLDREGE       CLEAR      1  -6  75 CALM      30.47S
KEARNEY *      CLEAR     -4  -9  77 CALM      30.48S
YORK             N/A     -2  -8  78 CALM      30.54S
$$

NEZ011>018-030>034-042>045-271300-
NORTHEAST NEBRASKA

CITY           SKY/WX    TMP DP  RH WIND       PRES   REMARKS
NORFOLK        CLEAR     -6 -11  79 W3        30.54R
6HR MIN TEMP:  -8; 6HR MAX TEMP:   0;

ALBION         CLEAR     -9 -15  74 CALM      30.51S
BLAIR          CLEAR     -3  -8  77 NW3       30.56R
COLUMBUS *     CLEAR     -8 -20  54 CALM      30.56R
FREMONT        CLEAR     -4  -9  77 CALM      30.58S
TEKAMAH        CLEAR     -3  -9  75 N5        30.61R WCI -13
6HR MIN TEMP:  -4; 6HR MAX TEMP:   0;

WAYNE          CLEAR    -10 -15  80 S3        30.57R
$$

NEZ050>053-065>068-078-088>093-271300-
SOUTHEAST NEBRASKA

CITY           SKY/WX    TMP DP  RH WIND       PRES   REMARKS
LINCOLN        CLEAR     -4  -9  79 S3        30.60R
6HR MIN TEMP:  -5; 6HR MAX TEMP:   2;

OMAHA EPPLEY   CLEAR     -1  -5  82 CALM      30.61R
6HR MIN TEMP:  -3; 6HR MAX TEMP:   2;

BEATRICE       CLEAR     -4  -8  81 CALM      30.57R
FALLS CITY     CLEAR     -4  -9  79 NW5       30.61R WCI -15
6HR MIN TEMP:  -4; 6HR MAX TEMP:   4;

NEBRASKA CITY  CLEAR     -1  -8  72 NW5       30.59R WCI -12
PLATTSMOUTH    CLEAR     -3  -8  79 W5        30.58S WCI -14
$$

NEZ044-045-051>053-067-271300-
OMAHA AREA

CITY           SKY/WX    TMP DP  RH WIND       PRES   REMARKS
OMAHA EPPLEY   CLEAR     -1  -5  82 CALM      30.61R
6HR MIN TEMP:  -3; 6HR MAX TEMP:   2;

BLAIR          CLEAR     -3  -8  77 NW3       30.56R
FREMONT        CLEAR     -4  -9  77 CALM      30.58S
MILLARD        CLEAR      1  -5  76 NW5       30.60S WCI  -9
OFFUTT AFB     CLEAR     -2  -7  78 NW5       30.60R WCI -12
PLATTSMOUTH    CLEAR     -3  -8  79 W5        30.58S WCI -14
WAHOO          FAIR      -5 -10  76 NW3       30.59R
$$


USA.gov is the U.S. government's official web portal to all federal, state and local government web resources and services.